EW2749 Weather Reports


time (UTC)temp
C
wind
direction
speed
KPH
gust
KPH
rain 1hr
cm
rain 24hr
cm
rain mn
cm
humidity
%
barometer
mb
20260502130641 3 0.0 1.6 0.00 0.10 0.10 96 1012.6
20260502130202 3 23 1.6 4.8 0.00 0.10 0.10 97 1012.6
20260502123610 2 0.0 1.6 0.00 0.10 0.10 96 1012.9
20260502123138 2 0.0 3.2 0.00 0.10 0.10 97 1012.8
20260502122651 2 0.0 1.6 0.00 0.10 0.10 96 1012.8
20260502122209 2 0.0 1.6 0.00 0.10 0.10 96 1012.9
20260502121509 2 0.0 1.6 0.00 0.10 0.10 96 1013.0
20260502121021 2 0.0 1.6 0.00 0.10 0.10 96 1013.0
20260502120539 2 0.0 3.2 0.00 0.10 0.10 96 1013.1
20260502120110 2 45 1.6 3.2 0.00 0.10 0.10 96 1013.0
20260502115625 2 0.0 1.6 0.00 0.10 0.10 96 1012.9
20260502115139 2 0.0 1.6 0.00 0.10 0.10 96 1013.0
20260502114705 2 0.0 1.6 0.00 0.10 0.10 96 1013.0
20260502113517 2 338 3.2 4.8 0.00 0.10 0.10 96 1013.1
20260502113041 2 0 3.2 4.8 0.03 0.10 0.10 97 1013.1
20260502112558 1 45 1.6 3.2 0.03 0.10 0.10 97 1013.0
20260502112117 1 0.0 0.0 0.03 0.10 0.10 97 1013.0
20260502111629 1 0.0 1.6 0.03 0.10 0.10 97 1013.0
20260502111153 1 0.0 1.6 0.03 0.10 0.10 96 1013.1
20260502110713 1 0.0 0.0 0.05 0.10 0.10 96 1013.2
20260502110011 1 0.0 1.6 0.05 0.10 0.10 96 1013.1
20260502105532 1 0.0 1.6 0.08 0.10 0.10 96 1013.0
20260502105053 1 0.0 1.6 0.08 0.10 0.10 96 1013.0
20260502104607 1 0.0 3.2 0.10 0.10 0.10 96 1013.0
20260502104150 1 0.0 3.2 0.10 0.10 0.10 95 1013.1
20260502103648 1 0.0 3.2 0.10 0.10 0.10 95 1013.1
20260502103226 1 0.0 3.2 0.08 0.08 0.08 96 1013.3
20260502102505 1 0.0 3.2 0.08 0.08 0.08 96 1013.3
20260502102024 1 23 1.6 4.8 0.08 0.08 0.08 96 1013.4
20260502101603 1 0 1.6 4.8 0.08 0.08 0.08 96 1013.3
20260502101059 1 0.0 1.6 0.08 0.08 0.08 95 1013.1
20260502100624 1 0.0 0.0 0.05 0.05 0.05 95 1013.1
20260502100157 1 0.0 1.6 0.05 0.05 0.05 95 1013.2
20260502091222 1 0.0 0.0 0.00 0.00 0.00 93 1012.9
20260502090605 1 0.0 1.6 0.00 0.00 0.00 93 1012.9
20260502071013 0 0.0 0.0 0.00 0.03 0.00 91 1012.2
20260502070532 0 0.0 0.0 0.00 0.03 0.00 91 1012.3
20260502070046 0 0.0 0.0 0.00 0.03 0.00 91 1012.3
20260502065630 0 0.0 0.0 0.00 0.03 0.00 90 1012.2
20260502065151 0 0.0 0.0 0.00 0.03 0.00 90 1012.3
20260502064750 0 0.0 0.0 0.00 0.03 0.00 90 1012.1
20260502064207 0 0.0 0.0 0.00 0.03 0.00 90 1012.0
20260502063506 0 0.0 0.0 0.00 0.03 0.00 90 1012.0
20260502063021 -1 0.0 0.0 0.00 0.03 0.00 90 1012.0
20260502062543 -1 0.0 0.0 0.00 0.03 0.00 91 1012.0
20260502062102 -1 0.0 0.0 0.00 0.03 0.00 91 1011.9
20260502061648 -1 0.0 0.0 0.00 0.03 0.00 91 1011.8
20260502061138 -1 0.0 0.0 0.00 0.03 0.00 91 1011.7
20260502060700 -1 0.0 0.0 0.00 0.03 0.00 91 1011.9
20260502060002 -1 0.0 0.0 0.00 0.03 0.00 91 1011.8
20260502055513 -1 0.0 0.0 0.00 0.03 0.00 90 1011.9
20260502055036 -1 0.0 0.0 0.00 0.03 0.00 90 1011.8
20260502054557 -1 0.0 0.0 0.00 0.03 0.00 90 1011.9
20260502054119 -1 0.0 0.0 0.00 0.03 0.00 90 1011.9
20260502053659 -1 0.0 0.0 0.00 0.03 0.00 90 1012.0
20260502053155 -1 0.0 0.0 0.00 0.03 0.00 90 1012.0
20260502052757 -1 0.0 0.0 0.00 0.03 0.00 90 1012.1
20260502052013 -1 0.0 0.0 0.00 0.03 0.00 90 1011.9
20260502051526 -1 0.0 0.0 0.00 0.03 0.00 90 1011.9
20260502051044 -1 0.0 0.0 0.00 0.03 0.00 90 1011.9
20260502050710 -1 0.0 0.0 0.00 0.03 0.00 89 1011.9
20260502050127 -1 0.0 0.0 0.00 0.03 0.00 89 1011.9
20260502045640 -1 0.0 1.6 0.00 0.03 0.00 88 1011.9
20260502045237 -1 0.0 1.6 0.00 0.03 0.00 88 1011.9
20260502044540 -1 0.0 1.6 0.00 0.03 0.00 88 1011.9
20260502044020 0 0.0 3.2 0.00 0.03 0.00 88 1011.8
20260502043533 0 0.0 1.6 0.00 0.03 0.00 88 1012.0
20260502043054 0 0.0 1.6 0.00 0.03 0.00 88 1011.9
20260502042610 0 0.0 1.6 0.00 0.03 0.00 87 1011.9
20260502042128 0 0.0 3.2 0.00 0.03 0.00 87 1011.9
20260502041648 0 0.0 1.6 0.00 0.03 0.00 87 1011.8
20260502041206 0 68 1.6 3.2 0.00 0.03 0.00 87 1011.9
20260502040521 0 68 1.6 3.2 0.00 0.03 0.00 86 1011.8
20260502040025 0 68 1.6 3.2 0.00 0.03 0.00 86 1011.8
20260502035544 0 68 1.6 3.2 0.00 0.03 0.03 86 1011.7
20260502035058 0 68 1.6 3.2 0.00 0.03 0.03 85 1011.8
20260502034637 0 0.0 1.6 0.00 0.03 0.03 84 1011.7
20260502034138 0 68 1.6 3.2 0.00 0.03 0.03 84 1011.8
20260502033702 0 0.0 3.2 0.00 0.03 0.03 83 1011.6
20260502033216 1 68 1.6 3.2 0.00 0.03 0.03 83 1011.6
20260502032516 1 0.0 3.2 0.00 0.03 0.03 83 1011.7
20260502032037 1 0.0 0.0 0.00 0.03 0.03 84 1011.7
20260502031610 1 0.0 0.0 0.00 0.03 0.03 84 1011.7
20260502031111 1 0.0 0.0 0.00 0.03 0.03 85 1011.6
20260502030634 1 0.0 3.2 0.00 0.03 0.03 85 1011.6
20260502030148 1 0.0 0.0 0.00 0.03 0.03 84 1011.6
20260502025704 1 0.0 0.0 0.00 0.03 0.03 83 1011.7
20260502025023 1 0.0 0.0 0.00 0.03 0.03 81 1011.8
20260502024524 1 0.0 0.0 0.00 0.03 0.03 82 1011.8
20260502024039 1 0.0 0.0 0.00 0.03 0.03 81 1011.8
20260502023557 1 0.0 0.0 0.00 0.03 0.03 81 1011.8
20260502023117 1 0.0 0.0 0.00 0.03 0.03 80 1011.8
20260502022638 2 0.0 0.0 0.00 0.03 0.03 81 1011.9
20260502022157 2 0.0 0.0 0.00 0.03 0.03 82 1011.9
20260502021714 2 0.0 0.0 0.00 0.03 0.03 82 1011.8
20260502021038 1 0.0 0.0 0.00 0.03 0.03 82 1011.9
20260502020534 1 0.0 0.0 0.00 0.03 0.03 81 1011.9
20260502020048 1 0.0 0.0 0.00 0.03 0.03 81 1012.1
20260502015631 1 0.0 1.6 0.00 0.03 0.03 81 1012.1
20260502015129 2 0.0 3.2 0.00 0.03 0.03 80 1012.1
20260502014715 2 0.0 1.6 0.00 0.03 0.03 80 1012.0
20260502014210 2 0.0 3.2 0.00 0.03 0.03 79 1012.0
20260502013725 2 0.0 3.2 0.00 0.03 0.03 78 1012.0
20260502013046 2 68 1.6 3.2 0.00 0.03 0.03 78 1011.9
20260502012544 2 45 1.6 4.8 0.00 0.03 0.03 77 1011.8
20260502012056 2 45 1.6 3.2 0.00 0.03 0.03 77 1011.8
20260502011628 2 0.0 3.2 0.00 0.03 0.03 76 1011.7
20260502011141 3 0.0 3.2 0.00 0.03 0.03 75 1011.8
20260502010701 3 23 1.6 3.2 0.00 0.03 0.03 73 1011.9
20260502010219 3 0.0 1.6 0.00 0.03 0.03 72 1011.8
20260502005516 3 23 1.6 3.2 0.00 0.03 0.03 71 1011.8
20260502005035 4 0.0 3.2 0.00 0.03 0.03 73 1011.6
20260502004612 4 23 1.6 3.2 0.00 0.03 0.03 69 1011.7
20260502004113 5 23 1.6 3.2 0.00 0.03 0.03 67 1011.6
20260502003625 5 23 1.6 3.2 0.00 0.03 0.03 66 1011.6
20260502003145 5 0.0 3.2 0.00 0.03 0.03 64 1011.7
20260502002712 6 23 1.6 3.2 0.00 0.03 0.03 64 1011.6
20260502002011 6 23 1.6 3.2 0.00 0.03 0.03 63 1011.7
20260502001524 7 23 1.6 3.2 0.00 0.03 0.03 61 1011.6
20260502001048 7 0 1.6 3.2 0.00 0.03 0.03 61 1011.7
20260502000627 7 315 3.2 4.8 0.00 0.03 0.03 57 1011.6
20260502000143 8 315 3.2 6.4 0.00 0.03 0.03 55 1011.5
20260501235638 8 338 3.2 6.4 0.00 0.03 0.03 55 1011.4
20260501235158 8 315 4.8 8.0 0.00 0.03 0.03 53 1011.2
20260501234721 8 338 3.2 8.0 0.00 0.03 0.03 51 1011.2
20260501233536 8 338 3.2 4.8 0.00 0.03 0.03 50 1011.1
20260501232926 9 338 4.8 8.0 0.00 0.03 0.03 47 1011.2
20260501232255 10 338 4.8 8.0 0.00 0.03 0.03 50 1011.0
20260501231650 10 338 4.8 8.0 0.00 0.05 0.03 47 1011.0
20260501231203 10 0 6.4 8.0 0.00 0.05 0.03 45 1011.1
20260501230551 10 0 4.8 9.7 0.00 0.05 0.03 46 1011.0
20260501230021 10 338 6.4 12.9 0.00 0.05 0.03 48 1010.9
20260501225540 10 0 6.4 16.1 0.00 0.05 0.03 49 1011.0
20260501225101 10 338 8.0 12.9 0.00 0.05 0.03 43 1010.9
20260501224622 10 0 6.4 12.9 0.00 0.05 0.03 45 1011.0
20260501224145 11 338 6.4 14.5 0.00 0.05 0.03 44 1010.9
20260501223701 10 338 6.4 12.9 0.00 0.05 0.03 43 1010.7
20260501223213 10 338 8.0 17.7 0.00 0.05 0.03 43 1010.7
20260501222517 10 338 8.0 14.5 0.00 0.05 0.03 42 1010.8
20260501222036 10 0 6.4 17.7 0.00 0.05 0.03 45 1010.6
20260501221552 10 338 8.0 16.1 0.00 0.08 0.03 43 1010.6
20260501221110 10 0 6.4 19.3 0.00 0.08 0.03 44 1010.6
20260501220651 10 0 8.0 17.7 0.00 0.08 0.03 43 1010.6
20260501220152 10 338 9.7 16.1 0.00 0.08 0.03 42 1010.5
20260501215706 10 338 9.7 17.7 0.00 0.08 0.03 43 1010.4
20260501215010 10 338 11.3 22.5 0.00 0.08 0.03 44 1010.5
20260501214526 10 338 12.9 24.1 0.00 0.10 0.03 43 1010.5
20260501214108 11 338 8.0 12.9 0.00 0.10 0.03 46 1010.6
20260501213607 10 338 6.4 14.5 0.00 0.10 0.03 41 1010.4
20260501213121 10 0 8.0 19.3 0.00 0.10 0.03 44 1010.5
20260501212644 10 0 8.0 17.7 0.00 0.10 0.03 45 1010.4
20260501212205 10 315 12.9 22.5 0.00 0.10 0.03 41 1010.4
20260501211736 10 338 9.7 16.1 0.00 0.10 0.03 43 1010.4
20260501211018 10 293 11.3 20.9 0.00 0.13 0.03 45 1010.2
20260501210552 10 315 12.9 20.9 0.00 0.13 0.03 40 1010.3
20260501205930 10 338 12.9 20.9 0.00 0.13 0.03 44 1010.6
20260501205149 9 338 14.5 24.1 0.00 0.15 0.03 48 1010.4
20260501204208 9 315 14.5 25.7 0.00 0.15 0.03 46 1010.3
20260501203505 10 338 9.7 24.1 0.00 0.15 0.03 44 1010.4
20260501203043 10 0 4.8 9.7 0.00 0.18 0.03 48 1010.4
20260501202541 10 0 6.4 14.5 0.00 0.18 0.03 46 1010.3
20260501202107 9 293 9.7 17.7 0.00 0.18 0.03 49 1010.3
20260501201625 9 315 12.9 17.7 0.00 0.18 0.03 48 1010.4
20260501201140 9 338 11.3 17.7 0.00 0.18 0.03 48 1010.4
20260501200656 9 338 12.9 27.4 0.00 0.18 0.03 49 1010.5
20260501200238 10 338 4.8 17.7 0.00 0.20 0.03 48 1010.4
20260501195535 9 338 8.0 19.3 0.00 0.20 0.03 51 1010.1
20260501195053 10 0 9.7 17.7 0.00 0.20 0.03 48 1010.2
20260501194547 9 0 8.0 22.5 0.00 0.20 0.03 49 1010.3
20260501194112 9 0 8.0 14.5 0.00 0.20 0.03 49 1010.3
20260501193628 9 315 8.0 14.5 0.00 0.20 0.03 52 1010.2
20260501193144 9 315 16.1 25.7 0.00 0.20 0.03 49 1010.3
20260501192708 9 315 14.5 22.5 0.00 0.20 0.03 48 1010.2
20260501192222 9 315 16.1 25.7 0.00 0.20 0.03 49 1010.3
20260501191519 9 315 19.3 25.7 0.00 0.20 0.03 47 1010.2
20260501191037 10 338 12.9 29.0 0.00 0.20 0.03 46 1010.1
20260501190616 10 338 12.9 20.9 0.00 0.20 0.03 46 1010.1
20260501190107 9 315 12.9 27.4 0.00 0.20 0.03 49 1010.2
20260501185629 9 270 17.7 27.4 0.00 0.20 0.03 48 1010.1
20260501185145 9 315 14.5 25.7 0.00 0.20 0.03 50 1010.3
20260501184706 9 315 16.1 22.5 0.00 0.20 0.03 51 1010.2
20260501184010 8 315 14.5 24.1 0.00 0.23 0.03 52 1010.2
20260501183543 9 315 19.3 27.4 0.00 0.23 0.03 54 1010.2
20260501183044 9 338 12.9 24.1 0.00 0.23 0.03 54 1010.2
20260501182605 8 315 11.3 30.6 0.00 0.23 0.03 52 1010.0
20260501182121 8 293 11.3 19.3 0.00 0.25 0.03 54 1010.1
20260501181639 8 315 14.5 20.9 0.00 0.25 0.03 56 1010.0
20260501181159 8 315 12.9 24.1 0.00 0.28 0.03 56 1010.1
20260501180800 8 315 11.3 22.5 0.00 0.28 0.03 55 1010.2
20260501180034 8 315 16.1 27.4 0.00 0.28 0.03 53 1010.4
20260501175525 8 225 9.7 25.7 0.00 0.28 0.03 53 1010.2
20260501175109 8 270 9.7 17.7 0.00 0.30 0.03 55 1010.3
20260501174604 8 293 9.7 19.3 0.00 0.33 0.03 54 1010.2
20260501174130 8 293 14.5 20.9 0.00 0.36 0.03 56 1010.3
20260501173718 8 248 12.9 22.5 0.00 0.36 0.03 58 1010.2
20260501172518 8 248 8.0 16.1 0.00 0.38 0.03 57 1010.1
20260501172021 8 338 8.0 20.9 0.00 0.38 0.03 59 1010.1
20260501171533 8 315 9.7 16.1 0.00 0.38 0.03 57 1010.1
20260501171052 7 315 9.7 24.1 0.00 0.38 0.03 60 1010.3
20260501170618 7 315 11.3 19.3 0.00 0.38 0.03 58 1010.2
20260501170135 7 315 9.7 17.7 0.00 0.38 0.03 62 1010.3
20260501165655 7 338 11.3 20.9 0.00 0.38 0.03 60 1010.5
20260501165211 7 338 12.9 24.1 0.00 0.38 0.03 60 1010.4
20260501164502 7 338 4.8 11.3 0.00 0.38 0.03 61 1010.3
20260501164020 7 315 8.0 14.5 0.00 0.38 0.03 63 1010.3
20260501163541 7 315 8.0 16.1 0.00 0.38 0.03 64 1010.4
20260501163117 6 293 4.8 9.7 0.00 0.38 0.03 64 1010.3
20260501162617 6 315 11.3 22.5 0.00 0.38 0.03 60 1010.5
20260501162140 6 315 9.7 24.1 0.00 0.38 0.03 61 1010.4
20260501161658 6 315 12.9 29.0 0.00 0.38 0.03 63 1010.4
20260501161213 6 315 9.7 19.3 0.00 0.38 0.03 64 1010.6
20260501160520 6 338 9.7 17.7 0.00 0.38 0.03 65 1010.5
20260501160052 6 338 6.4 17.7 0.00 0.38 0.03 66 1010.6
20260501155556 6 315 11.3 20.9 0.00 0.38 0.03 64 1010.7
20260501154624 6 0 4.8 19.3 0.00 0.38 0.03 68 1010.6
20260501154142 6 315 9.7 17.7 0.00 0.38 0.03 66 1010.7
20260501153701 5 315 11.3 24.1 0.00 0.38 0.03 69 1010.7
20260501153228 5 315 9.7 20.9 0.00 0.38 0.03 67 1010.7
20260501152524 5 293 11.3 22.5 0.00 0.38 0.03 66 1010.6
20260501152045 5 270 11.3 20.9 0.00 0.38 0.03 71 1010.7
20260501151604 6 315 12.9 19.3 0.00 0.38 0.03 69 1010.7
20260501151121 6 0 8.0 19.3 0.00 0.38 0.03 68 1010.7
20260501150658 6 338 8.0 19.3 0.00 0.38 0.03 70 1010.6
20260501150154 5 338 6.4 14.5 0.00 0.38 0.03 70 1010.7
20260501145734 5 338 8.0 14.5 0.00 0.38 0.03 69 1010.7
20260501145013 5 338 12.9 22.5 0.00 0.38 0.03 68 1010.6
20260501144533 5 0 6.4 16.1 0.00 0.38 0.03 70 1010.7
20260501144106 5 338 8.0 14.5 0.00 0.38 0.03 71 1010.8
20260501143733 5 270 9.7 16.1 0.00 0.38 0.03 72 1010.8
20260501143121 5 293 12.9 24.1 0.00 0.38 0.03 70 1010.9
20260501142704 5 315 8.0 19.3 0.00 0.38 0.03 71 1010.8
20260501142202 5 315 8.0 16.1 0.00 0.41 0.03 70 1010.7
20260501141507 5 338 11.3 24.1 0.00 0.41 0.03 71 1010.8
20260501141021 5 338 9.7 19.3 0.00 0.41 0.03 71 1010.8
20260501140625 5 338 11.3 17.7 0.00 0.41 0.03 70 1010.8
20260501140056 5 293 12.9 19.3 0.00 0.41 0.03 72 1010.7
20260501135614 5 0 8.0 17.7 0.00 0.43 0.03 70 1010.8
20260501135153 5 315 11.3 20.9 0.00 0.46 0.03 73 1010.8
20260501134646 5 315 14.5 25.7 0.00 0.46 0.03 73 1010.7
20260501134209 5 315 11.3 16.1 0.00 0.46 0.03 74 1010.8
20260501133509 4 338 6.4 14.5 0.00 0.46 0.03 77 1010.8